Theta_e
309 309 310 310 310 309 309 311 312 313 313 313 313 313 313 311 310 310 312 314 315 314 314 314 314 315 316 315 316 312 311 313 315 314 313 311 311 311 310 314 312 313 312 312 317
309 309 310 310 310 309 310 313 314 314 315 315 316 315 315 312 311 315 314 316 314 313 314 314 314 314 312 316 316 312 310 311 312 313 315 313 313 312 311 309 310 310 311 313 316
310 310 310 310 311 311 312 314 315 316 317 317 317 316 315 312 314 314 313 314 314 312 315 314 315 314 315 314 316 314 313 313 315 314 313 314 312 312 312 312 309 311 311 311 314
311 311 311 312 312 312 313 315 316 318 319 318 318 316 315 312 311 314 313 310 311 312 315 314 313 314 314 314 313 316 314 314 315 314 313 314 314 313 313 312 310 309 308 308 309
312 312 312 313 314 315 315 317 318 319 320 319 318 316 313 314 313 316 313 312 311 312 313 313 313 313 314 313 312 313 313 313 313 310 311 312 312 312 311 310 308 307 308 307 306
313 312 313 314 315 317 318 318 319 320 321 320 318 313 313 314 315 315 314 312 312 313 313 312 312 311 312 312 312 311 312 311 311 311 310 312 311 312 311 310 308 310 308 304 304
315 314 314 314 316 318 319 320 320 321 321 320 315 311 316 314 314 315 313 312 313 313 312 313 313 313 312 312 311 312 312 310 310 311 311 309 312 312 310 309 309 309 304 305 305
315 315 314 315 317 318 319 320 321 322 321 317 311 313 312 313 313 314 314 313 314 314 313 313 313 312 313 312 310 311 311 312 312 312 312 311 313 312 309 309 309 307 303 305 304
315 315 315 316 317 319 320 321 321 321 319 313 314 315 313 309 310 312 312 312 312 312 312 312 312 311 311 309 310 310 312 310 311 312 312 311 311 311 309 309 308 303 305 304 303
315 315 315 316 318 320 321 321 319 316 315 315 316 313 311 311 311 310 311 312 310 310 310 311 307 309 308 308 312 313 310 309 311 311 312 312 309 308 309 310 309 304 303 302 302
316 315 316 317 319 320 321 320 316 316 317 316 314 313 311 310 310 310 310 311 310 310 310 310 308 309 309 309 310 310 310 309 309 310 312 312 311 310 310 309 305 305 303 302 300
317 316 316 318 319 320 320 318 315 314 318 316 313 312 312 311 313 310 310 310 311 312 310 310 310 310 309 309 310 310 310 311 311 310 312 312 311 308 305 305 305 304 302 301 299
319 317 317 318 319 320 320 317 314 312 316 317 316 317 314 313 316 314 309 309 311 311 311 312 313 310 311 311 314 313 312 312 313 312 309 311 311 310 305 305 303 302 300 299 298
322 318 317 318 319 320 318 318 314 313 319 319 317 313 310 312 314 308 308 310 311 312 311 311 311 313 312 314 313 316 312 312 313 310 312 310 314 311 306 305 303 301 299 298 297
324 319 318 318 321 319 318 315 314 313 331 317 313 309 308 314 309 308 307 309 313 313 313 317 314 312 314 314 312 314 310 310 310 310 311 311 311 310 306 306 303 301 300 298 297
323 320 319 318 319 321 316 315 315 326 328 311 309 310 309 308 308 307 308 307 309 311 311 311 309 309 310 309 310 309 310 310 307 308 314 312 312 312 308 307 304 301 300 299 297
323 322 320 319 320 320 315 316 325 327 321 313 311 310 310 309 308 309 308 308 310 312 312 313 312 309 308 310 308 308 309 314 315 314 317 312 311 312 307 305 304 302 299 297 294
323 322 320 320 320 320 318 322 325 324 323 318 316 313 318 317 317 311 310 312 309 311 312 315 314 309 308 310 310 307 310 316 314 317 316 310 313 312 304 303 301 299 296 294 293
319 318 318 319 320 317 318 325 325 324 322 321 319 319 318 318 318 316 312 312 312 309 315 314 313 309 308 309 311 312 313 312 312 296 308 312 310 307 303 300 298 297 295 294 292
318 317 316 318 318 317 319 322 318 318 321 320 319 318 317 318 318 317 316 311 313 309 310 312 314 311 310 309 308 311 309 314 310 309 308 311 311 312 306 302 299 297 295 294 291
313 315 312 317 316 318 318 318 317 317 319 322 322 322 319 319 317 318 315 313 310 309 309 311 311 312 311 311 311 310 309 310 311 311 309 308 309 306 306 303 301 298 297 294 291
308 315 309 313 317 317 315 315 316 317 315 319 318 319 318 317 318 316 315 313 309 310 312 312 312 309 312 307 308 308 309 309 313 311 309 311 311 306 305 302 300 299 298 293 292
307 308 307 310 318 317 315 315 317 316 316 316 319 317 316 317 319 314 313 308 306 310 311 310 310 303 305 304 308 309 309 308 308 305 303 309 308 301 300 300 300 298 296 293 290
306 306 308 309 312 315 315 314 315 313 314 314 316 314 314 314 315 313 310 308 304 308 308 308 304 306 313 304 305 306 308 306 305 303 304 306 305 302 301 299 296 293 291 288 287
304 306 306 307 310 314 312 313 315 312 311 311 309 313 313 313 312 311 308 304 302 304 303 306 303 305 304 306 306 305 305 304 304 302 303 303 302 301 296 295 293 287 286 287 288
304 303 301 304 305 308 311 312 313 312 310 309 310 308 308 311 308 306 305 304 305 301 302 298 299 297 294 300 301 301 301 302 302 302 299 300 299 296 289 286 286 286 287 288 287
297 296 299 303 304 308 307 309 309 307 303 304 307 305 305 306 301 298 297 299 300 301 301 299 296 292 292 292 291 290 292 297 296 296 296 296 295 290 288 288 286 286 287 287 286
Wind_Speed
3 3 4 4 4 5 5 6 7 9 10 11 12 12 13 15 16 13 5 2 0 2 2 6 3 2 2 3 2 3 4 1 3 1 5 5 6 4 5 3 3 3 4 4 3
4 4 4 4 5 5 5 6 7 8 10 11 11 12 12 15 15 9 3 4 4 3 7 7 2 2 2 1 2 4 4 7 5 3 3 3 1 4 5 7 3 5 5 2 7
5 5 6 5 5 5 5 6 8 9 10 11 11 10 10 11 5 2 1 3 6 7 5 5 2 4 0 1 3 4 5 4 4 5 5 3 4 3 1 7 6 8 4 3 7
6 6 6 5 6 6 6 7 9 10 11 11 10 9 8 4 3 1 1 3 6 12 5 4 2 4 3 3 3 1 7 5 5 2 4 3 3 6 3 11 6 7 6 6 5
7 7 6 7 6 7 7 8 9 11 12 12 10 8 3 1 7 3 3 3 6 11 4 2 3 4 3 3 1 5 4 4 5 8 6 3 6 5 9 13 9 8 5 4 8
9 8 7 7 7 7 8 8 10 12 13 12 9 5 2 3 3 3 2 5 7 9 4 5 4 5 3 3 4 2 2 6 7 10 5 5 2 4 8 3 8 5 8 10 10
11 9 8 8 8 8 8 9 11 13 13 11 8 2 2 10 4 2 2 3 6 5 3 3 3 3 2 2 4 1 5 7 8 2 4 6 0 7 11 6 8 6 10 11 13
13 11 10 9 8 8 9 11 12 14 13 7 3 2 6 4 4 5 5 3 5 4 3 2 3 4 3 0 6 3 2 3 4 2 0 3 7 6 10 4 11 9 9 11 14
13 13 11 9 8 8 10 12 14 14 7 3 2 2 7 2 4 5 5 3 5 5 4 3 2 2 4 4 4 3 3 5 8 3 2 3 6 9 9 5 9 9 8 10 10
14 14 12 10 8 8 10 13 8 4 2 2 1 2 3 4 4 4 6 10 3 4 3 3 4 3 2 3 5 6 4 5 4 3 1 4 9 9 16 3 5 10 10 11 12
14 14 13 11 9 7 9 4 2 1 4 8 5 3 2 4 6 3 5 7 3 3 5 2 4 7 12 11 3 3 4 5 6 7 1 7 5 11 10 6 8 10 12 11 11
17 15 13 12 10 8 7 2 3 2 6 10 9 6 3 6 3 4 8 5 4 6 4 2 7 13 2 4 6 7 7 7 5 6 3 4 11 7 11 6 11 13 10 10 9
20 18 15 11 12 11 8 5 5 3 2 6 5 4 3 8 5 7 9 4 5 6 7 8 6 4 7 5 6 4 5 4 7 4 4 2 8 4 5 12 14 13 11 9 9
26 22 17 11 7 7 5 11 7 4 2 5 4 3 3 5 3 1 6 5 3 9 6 6 6 7 5 5 6 4 7 7 4 3 3 3 3 2 3 8 10 8 7 7 8
31 26 21 21 4 6 4 12 8 2 4 1 3 2 3 5 6 0 1 2 5 5 6 5 1 3 4 7 6 7 3 3 2 3 2 3 3 4 6 3 5 4 6 6 6
30 28 23 22 20 8 10 12 5 3 9 4 4 5 5 3 3 3 2 2 1 2 1 6 2 3 6 2 4 4 3 5 5 3 1 5 6 4 5 8 7 6 6 7 7
28 31 31 26 9 23 16 7 3 6 2 5 5 5 4 5 3 4 5 4 5 4 3 2 4 2 3 4 2 3 5 1 3 2 5 4 2 3 4 11 12 11 7 6 6
28 31 34 32 25 23 15 3 8 6 6 2 4 5 6 6 4 5 5 3 5 2 3 4 3 8 5 6 6 6 7 5 6 4 4 4 5 2 5 11 12 9 7 6 6
16 19 11 26 25 33 7 9 6 6 6 8 4 5 4 4 4 5 7 6 9 11 8 6 5 1 2 2 5 5 4 1 5 3 3 4 2 2 6 8 7 7 6 6 6
18 11 5 21 32 18 6 7 4 4 5 4 8 5 7 7 6 7 7 5 5 9 3 5 1 1 2 2 2 3 4 3 3 2 4 4 5 4 9 10 8 8 7 7 6
8 4 5 18 28 4 6 6 5 3 2 6 10 10 8 6 10 6 5 2 3 4 6 4 3 3 2 4 7 1 0 3 2 4 4 2 5 1 14 13 13 9 9 9 8
4 2 1 18 7 2 4 6 4 5 3 4 2 9 9 9 7 8 9 2 6 4 7 3 4 4 6 2 3 1 4 5 4 5 3 2 9 3 12 11 9 8 7 7 6
3 1 3 4 4 5 1 2 5 5 4 8 7 3 3 6 5 4 3 2 5 4 9 7 1 1 6 3 1 3 3 4 5 3 5 4 6 3 7 7 6 7 7 6 5
3 2 1 2 1 1 5 5 5 5 5 3 4 4 4 4 4 2 3 1 5 1 3 5 4 7 10 5 5 4 5 4 5 3 3 6 4 6 9 8 6 3 6 7 5
1 3 2 3 6 7 1 3 9 7 5 8 3 8 6 6 5 6 4 1 3 3 2 3 5 3 3 2 2 4 8 8 6 5 7 9 9 13 4 5 7 7 7 6 4
3 2 2 1 3 7 10 8 14 4 8 5 8 9 8 11 7 7 7 5 5 2 2 4 2 3 3 4 2 6 8 10 12 11 10 13 19 9 5 7 7 8 7 4 2
4 2 2 2 3 7 12 15 11 5 3 1 11 6 6 7 5 4 5 4 6 7 5 4 5 3 5 4 5 9 8 18 8 6 8 11 11 4 5 8 9 7 6 5 5
Wind_Direction
325 328 334 337 338 342 348 353 351 347 343 340 336 332 330 325 321 311 267 263 177 176 155 153 154 97 46 18 39 94 61 255 249 22 289 332 7 330 295 294 347 299 179 262 199
289 294 304 313 319 325 333 339 340 339 338 336 334 330 328 325 323 292 261 222 218 235 170 159 147 125 24 355 21 94 126 223 213 183 254 283 338 309 352 314 290 292 302 344 181
277 286 292 302 309 311 312 319 328 333 333 333 332 331 327 327 336 263 325 221 224 192 176 178 128 142 136 145 201 168 198 220 244 221 202 256 268 215 299 298 213 267 269 294 243
275 276 285 292 301 301 302 312 321 328 331 331 330 329 321 327 293 199 164 158 169 177 187 182 152 140 181 217 201 183 249 238 277 336 324 264 312 313 227 249 241 255 274 277 263
272 276 280 287 293 299 299 308 317 320 326 326 325 322 315 32 250 239 261 211 184 181 189 151 153 165 194 215 293 211 254 264 269 280 242 255 241 246 260 265 296 298 314 339 355
270 269 272 278 287 297 302 308 313 317 320 319 317 299 158 248 231 258 263 196 189 184 184 184 201 194 211 232 184 192 261 264 274 265 268 239 262 137 275 282 310 10 23 47 46
266 267 266 271 280 290 298 304 308 311 313 312 309 231 197 239 215 209 204 190 190 180 180 190 224 160 129 296 310 296 322 316 264 280 232 170 300 226 253 314 295 346 68 58 42
265 261 261 263 273 287 297 301 302 303 304 300 286 178 243 228 200 221 204 187 188 196 174 141 135 136 174 145 3 326 40 326 294 165 99 115 264 267 284 245 285 34 86 64 42
261 261 257 259 268 286 298 301 299 294 280 240 237 205 265 167 202 195 189 168 141 123 115 133 116 151 61 92 360 347 240 216 309 320 133 140 249 272 285 272 305 75 79 69 48
257 258 257 258 267 288 301 310 304 284 207 192 215 340 241 216 166 159 160 148 125 102 50 68 52 98 59 105 219 222 220 236 236 271 40 252 246 277 278 320 234 123 83 67 56
249 254 255 259 262 284 310 323 322 288 211 199 200 221 133 135 146 148 148 139 108 94 164 207 119 203 211 202 169 168 210 229 253 261 279 266 279 261 292 288 111 110 96 83 66
248 244 246 256 261 266 287 227 224 158 299 242 241 268 212 179 139 203 162 148 153 200 138 82 222 230 195 161 213 242 251 255 283 257 226 295 295 31 25 16 104 108 95 88 83
244 240 234 237 263 267 224 222 207 167 227 285 211 200 195 172 213 199 161 163 179 189 192 190 214 179 180 220 207 213 207 219 233 302 292 326 295 108 48 70 71 67 76 75 75
237 232 223 218 253 222 213 210 195 167 288 249 217 221 130 141 201 154 189 169 202 201 208 235 249 204 200 212 171 256 233 213 236 115 232 79 277 43 93 72 66 76 76 79 79
237 224 214 203 193 188 205 177 165 177 265 141 161 133 146 161 134 251 138 87 188 182 129 240 233 181 186 219 156 223 173 173 161 140 54 318 115 260 131 107 117 100 95 91 80
238 217 210 207 228 203 182 150 121 133 235 194 140 167 132 158 149 130 133 63 153 171 176 236 278 218 209 131 170 152 103 51 39 92 246 211 161 247 193 180 151 137 128 111 101
237 220 207 204 205 207 170 139 160 210 111 192 185 163 167 161 170 163 162 175 162 126 196 265 228 262 166 122 36 112 86 333 344 341 227 169 132 256 338 141 146 139 133 115 104
235 225 211 211 207 191 159 178 213 181 191 133 121 129 168 158 198 188 131 206 236 160 145 169 270 177 195 198 181 188 169 164 205 209 245 274 241 302 48 99 119 131 132 119 108
195 197 193 193 195 169 159 210 217 184 165 151 74 136 183 213 166 157 203 207 201 180 175 181 260 121 170 171 151 190 185 199 106 44 67 224 41 114 108 102 119 135 136 141 131
153 161 190 178 174 164 189 209 216 221 125 155 173 165 176 193 158 183 200 216 212 188 206 189 211 46 182 127 64 168 162 70 8 167 260 277 268 200 177 172 172 170 173 168 164
117 142 177 180 170 195 197 216 202 217 171 171 197 188 216 188 194 189 219 289 164 149 134 131 134 247 142 205 189 129 166 84 133 152 185 243 254 242 177 175 178 190 195 182 177
111 146 190 160 193 222 170 179 181 165 132 242 265 195 194 184 198 203 213 226 354 166 154 183 145 182 201 341 318 344 203 166 155 225 227 174 261 96 157 166 172 194 189 190 177
95 37 325 259 209 196 162 183 194 155 176 177 206 248 124 168 201 213 203 70 348 184 161 179 164 64 350 345 48 186 170 127 104 81 203 183 258 98 110 134 194 191 179 157 161
105 163 259 301 343 239 164 191 209 188 188 200 170 128 152 170 209 216 182 315 329 37 42 105 148 179 225 189 134 157 171 166 132 137 184 222 273 176 171 180 201 133 141 154 145
113 210 201 189 237 229 280 173 194 182 217 179 185 207 170 195 203 200 160 168 357 353 43 132 188 142 285 138 138 184 172 188 182 179 192 248 222 256 211 230 194 160 150 153 154
163 190 340 183 137 216 234 218 234 207 170 210 221 190 189 211 182 192 143 184 193 81 102 357 170 102 315 292 233 268 193 191 218 234 243 252 267 270 83 109 133 159 157 153 211
147 117 103 225 170 179 225 235 221 162 242 298 203 147 200 207 123 102 99 95 141 146 161 128 129 86 262 0 29 303 207 203 201 197 219 226 243 166 164 157 161 166 172 199 228